ONEWEB-0110 (47260 NORAD) Tracking and Keplerian Element Data
This shows tracking and keplerian element data for the satellite.
Feedback or suggestion? Click here.
Element | Value |
Catalog | 47260 |
Name | ONEWEB-0110 |
Epoch Orbit | 440 |
Epoch Day | 16.16667824 |
Epoch Year | 2021 |
RAAN | 29.53 |
Inclination | 87.4329 |
Eccentricity | 0.0008465 |
Argument of Perigee | 160.7232 |
Mean Anonmoly | 352.976 |
Mean Motion | 15.19798524 |
Decay Rate | -0.01498985 |
L1 | 1 47260U 20100C 21016.16667824 -.01498985 00000-0 -76609-1 0 9997 |
L2 | 2 47260 87.4329 29.5300 0008465 160.7232 352.9760 15.19798524 4408 |
Live tracking and technical data element details for ONEWEB-0110 (NORAD 47260). ONEWEB-0110 can be tracked NOW for your location showing map with azimuth and elevation plus other details from your city location.
Track the satellite on the map from your city or location and see movement details for azimuth, elevation, latitude, longitude, range, height, and movement on the map or in text.
IsCatalogInMostPopularTable: catalog: 47260, numindb: 10
Update: records affected: 1
GetName: 47260 ONEWEB-0110
Hit Count: updated at: Sun, 17 Jan 2021 09:21:25 GMT